User: anonymous   Login
Location: Newark
(34.3481°N, 134.0494°E)
Time: 18:23:08
(UTC+00:00)
Language:

Transit 2A Rocket - Orbit

View from above orbital plane
View from above orbital plane
View from above satellite
View from above satellite

Ground track
Ground track

The orbit data is extracted from the following two-line orbital elements,

1    47U 60007C   20018.78676660 -.00000043  00000-0  15285-4 0  9994
2    47  66.6640 197.8753 0221936  52.2977 309.8021 14.42068775113402
Epoch (UTC): 18 January 2020 18:52:56
Eccentricity: 0.0221936
inclination: 66.6640°
perigee height: 593 km
apogee height: 910 km
right ascension of ascending node: 197.8753°
argument of perigee: 52.2977°
revolutions per day: 14.42068775
mean anomaly at epoch: 309.8021°
orbit number at epoch: 11340

The dashed part of the orbit path shows where the satellite is in the earth's shadow,  

DLR